Weather History for KIWI - January, 2014

Change the Weather History Date:

Friday, January 3, 2014

  Actual Average Record
Temperature  
Mean Temperature -5 °F -  
Max Temperature 3 °F 31 °F 55 °F (2000)
Min Temperature -14 °F 14 °F -14 °F (2014)
Degree Days  
Heating Degree Days 70    
Moisture  
Dew Point -12 °F    
Average Humidity 71    
Maximum Humidity 79    
Minimum Humidity 53    
Precipitation  
Precipitation 0.03 in - - ()
Sea Level Pressure  
Sea Level Pressure 30.02 in    
Wind  
Wind Speed 7 mph (North)    
Max Wind Speed 12 mph    
Max Gust Speed 22 mph    
Visibility 4 miles    
Events Snow    
Averages and records for this station are not official NWS values.
T = Trace of Precipitation, MM = Missing Value Source: NWS Daily Summary

Daily Weather History Graph

Daily Weather History Graph

Search for Another Location

Airport or City:

Trip Planner

Search our weather history database for the weather conditions in past years. The results will help you decide how hot, cold, wet, or windy it might be!

Date:

Astronomy

Jan. 03, 2014 Rise Set
Actual Time 7:13 AM EST 4:13 PM EST
Civil Twilight 6:40 AM EST 4:46 PM EST
Nautical Twilight 6:04 AM EST 5:22 PM EST
Astronomical Twilight 5:29 AM EST 5:57 PM EST
Moon 8:31 AM EST (1/3) 7:25 PM EST (1/3)
Length of Visible Light 10h 05m
Length of Day
8h 59m
Waxing Crescent, 8% of the Moon is Illuminated
Jan 3
Waxing Crescent
Jan 7
First Quarter
Jan 15
Full
Jan 24
Last Quarter
Jan 30
New

Hourly Weather History & Observations

Time (EST) Temp. Windchill Dew Point Humidity Pressure Visibility Wind Dir Wind Speed Gust Speed Precip Events Conditions
12:39 AM -7.1 °F -21.4 °F -14.1 °F 72% 30.00 in 1.5 mi Variable 6.9 mph - 0.02 in Snow Light Snow
12:46 AM -7.1 °F -18.1 °F -14.1 °F 72% 29.99 in 1.2 mi Variable 4.6 mph - 0.02 in Snow Light Snow
12:53 AM -7.1 °F -22.8 °F -14.1 °F 72% 30.01 in 1.2 mi North 8.1 mph - 0.02 in Snow Light Snow
1:48 AM -7.6 °F -22.1 °F -14.8 °F 71% 29.98 in 1.0 mi Variable 6.9 mph 16.1 mph 0.00 in Snow Light Snow
1:53 AM -8.0 °F -22.5 °F -14.1 °F 75% 29.99 in 1.0 mi Variable 6.9 mph 17.3 mph 0.00 in Snow Light Snow
2:21 AM -8.0 °F -23.9 °F -14.1 °F 75% 29.97 in 1.2 mi North 8.1 mph - 0.00 in Snow Light Snow
2:33 AM -8.0 °F -23.9 °F -14.1 °F 75% 29.96 in 1.8 mi NNE 8.1 mph 19.6 mph 0.00 in Snow Light Snow
2:46 AM -7.1 °F -22.8 °F -14.1 °F 72% 29.95 in 2.0 mi North 8.1 mph 20.7 mph 0.01 in Snow Light Snow
2:53 AM -7.1 °F -22.8 °F -14.1 °F 72% 29.96 in 1.8 mi NNE 8.1 mph 19.6 mph 0.01 in Snow Light Snow
3:06 AM -8.0 °F -25.0 °F -14.1 °F 75% 29.92 in 1.2 mi NNE 9.2 mph 18.4 mph 0.00 in Snow Light Snow
3:53 AM -7.1 °F -23.9 °F -14.1 °F 72% 29.91 in 1.0 mi NNE 9.2 mph 19.6 mph 0.00 in Snow Light Snow
4:20 AM -7.1 °F -23.9 °F -14.1 °F 72% 29.90 in 0.8 mi NNE 9.2 mph - 0.00 in Snow Light Snow
4:53 AM -7.1 °F -21.4 °F -13.0 °F 75% 29.89 in 0.8 mi Variable 6.9 mph - 0.00 in Snow Light Snow
5:22 AM -7.1 °F -25.9 °F -14.1 °F 72% 29.88 in 0.8 mi North 11.5 mph 20.7 mph 0.00 in Snow Light Snow
5:53 AM -7.1 °F -21.4 °F -13.0 °F 75% 29.89 in 0.8 mi Variable 6.9 mph 17.3 mph 0.00 in Snow Light Snow
6:05 AM -7.1 °F -21.4 °F -13.0 °F 75% 29.88 in 0.8 mi Variable 6.9 mph 21.9 mph 0.00 in Snow Light Snow
6:53 AM -7.1 °F -19.9 °F -13.0 °F 75% 29.91 in 0.8 mi Variable 5.8 mph - 0.00 in Snow Light Snow
7:53 AM -6.0 °F -20.1 °F -11.9 °F 75% 29.91 in 0.2 mi Variable 6.9 mph 17.3 mph 0.00 in Snow Heavy Snow
8:21 AM -5.1 °F -20.4 °F -11.0 °F 76% 29.92 in 0.5 mi North 8.1 mph 17.3 mph 0.00 in Snow Snow
8:53 AM -5.1 °F -21.5 °F -11.0 °F 76% 29.93 in 0.5 mi North 9.2 mph - 0.00 in Snow Snow
9:20 AM -4.0 °F -16.3 °F -11.0 °F 72% 29.93 in 1.2 mi Variable 5.8 mph - 0.00 in Snow Light Snow
9:31 AM -4.0 °F - -9.9 °F 76% 29.94 in 1.5 mi North - - 0.00 in Snow Light Snow
9:48 AM -4.0 °F -20.2 °F -11.2 °F 71% 29.94 in 1.2 mi North 9.2 mph - 0.00 in Snow Light Snow
9:53 AM -4.0 °F -12.4 °F -11.0 °F 72% 29.95 in 1.2 mi Variable 3.5 mph 19.6 mph 0.00 in Snow Light Snow
10:10 AM -2.9 °F -16.5 °F -11.0 °F 68% 29.94 in 1.8 mi Variable 6.9 mph 18.4 mph 0.00 in Snow Light Snow
10:42 AM -2.9 °F -19.8 °F -9.9 °F 72% 29.95 in 2.5 mi North 10.4 mph 18.4 mph 0.00 in Snow Light Snow
10:53 AM -2.0 °F - -9.9 °F 69% 29.95 in 3.0 mi North - - 0.00 in Snow Light Snow
11:53 AM -0.0 °F -13.0 °F -9.0 °F 66% 29.95 in 9.0 mi Variable 6.9 mph - 0.00 in   Overcast
12:53 PM 1.0 °F -14.9 °F -9.9 °F 60% 29.98 in 10.0 mi NNW 10.4 mph 19.6 mph N/A   Overcast
1:53 PM 3.9 °F -9.4 °F -9.0 °F 55% 30.01 in 10.0 mi NNW 8.1 mph - N/A   Mostly Cloudy
2:53 PM 3.9 °F -8.2 °F -9.9 °F 53% 30.06 in 10.0 mi Variable 6.9 mph - N/A   Mostly Cloudy
3:53 PM 3.0 °F - -9.0 °F 57% 30.11 in 10.0 mi Calm Calm - N/A   Clear
4:53 PM 1.9 °F - -8.0 °F 63% 30.16 in 10.0 mi Calm Calm - N/A   Clear
5:53 PM -2.9 °F -11.2 °F -9.0 °F 75% 30.22 in 8.0 mi Variable 3.5 mph - N/A   Clear
6:53 PM -2.9 °F -13.3 °F -9.9 °F 72% 30.27 in 10.0 mi WNW 4.6 mph - N/A   Clear
7:53 PM -2.0 °F -10.1 °F -11.9 °F 63% 30.30 in 10.0 mi Variable 3.5 mph - N/A   Clear
8:53 PM -2.9 °F -11.2 °F -13.0 °F 62% 30.32 in 10.0 mi North 3.5 mph - N/A   Clear
9:53 PM -9.9 °F - -16.1 °F 74% 30.34 in 10.0 mi Calm Calm - N/A   Clear
10:53 PM -13.0 °F - -18.0 °F 78% 30.36 in 10.0 mi Calm Calm - N/A   Clear
11:53 PM -14.1 °F - -18.9 °F 79% 30.38 in 8.0 mi Calm Calm - N/A   Clear